Wind_Speed
47 47 44 42 40 39 38 39 41 44 47 48 49 51 52 53 54 57 62 63 61 60 59 56 54 52 51 52 51 51 51 52 53 54 53 51 50 49 49 49 49 49
49 51 51 49 47 44 42 41 42 43 45 47 50 53 55 56 59 63 65 63 61 59 55 52 50 50 51 51 50 51 52 53 53 53 52 51 50 50 50 50 50 50
50 52 54 54 52 50 48 46 46 46 47 48 50 53 56 60 63 66 65 62 59 55 50 49 50 51 51 51 50 51 52 53 52 52 51 51 51 51 51 51 51 51
52 53 55 57 57 56 55 54 53 52 52 53 54 56 59 62 65 65 63 59 54 50 48 50 51 52 51 51 52 52 52 51 51 52 52 52 52 52 52 52 52 53
56 56 56 58 59 60 60 59 58 56 55 55 56 57 60 62 63 63 60 55 51 49 50 52 53 52 51 52 53 52 52 51 51 53 54 53 53 53 53 53 54 56
60 60 59 59 60 61 61 60 59 57 55 55 56 58 59 60 60 58 55 52 51 51 53 53 53 52 52 53 53 52 52 52 52 54 55 54 54 54 55 56 57 59
60 60 60 60 59 59 59 59 58 57 55 53 53 55 55 55 55 53 52 52 53 54 54 53 52 52 53 53 53 52 52 53 55 55 56 56 57 57 58 59 61 62
55 56 57 57 57 56 56 56 56 55 53 51 51 51 51 52 52 52 53 53 54 54 54 53 52 52 53 53 53 53 54 55 57 57 58 59 59 59 60 62 63 64
51 52 53 54 55 56 56 56 55 55 54 53 53 53 54 54 54 54 55 55 54 54 53 53 53 53 54 54 54 54 55 57 59 60 61 62 61 62 63 64 65 65
51 51 52 54 56 56 57 56 56 55 55 56 56 57 57 57 57 57 56 55 54 54 53 53 54 55 55 54 54 55 57 59 61 63 64 64 65 65 66 67 67 65
52 53 55 56 57 57 57 57 56 56 56 57 58 58 59 59 59 58 57 56 55 54 54 54 56 55 55 54 55 56 59 61 64 66 67 67 68 69 69 69 67 65
53 55 56 57 57 57 57 57 57 57 57 58 58 58 59 59 59 58 57 56 55 54 55 55 55 55 54 55 56 58 61 64 67 68 69 70 71 71 71 70 67 65
54 55 56 56 56 56 56 57 57 58 58 58 58 58 59 59 58 57 56 55 55 54 54 54 54 54 55 56 58 60 63 66 69 70 71 72 73 73 72 70 67 65
54 55 55 55 55 55 56 57 57 57 57 57 58 58 58 58 57 56 55 54 53 53 54 54 54 55 56 59 61 63 65 68 70 72 73 74 74 74 72 69 67 66
55 55 55 55 55 55 56 56 56 56 56 56 57 58 57 56 55 53 52 52 53 54 54 55 55 57 59 61 63 65 67 69 71 74 75 75 75 74 71 69 67 66
55 55 55 55 55 55 55 54 54 54 55 56 56 56 55 53 52 51 51 52 54 55 56 57 57 59 61 63 65 67 69 71 73 74 75 75 75 73 70 68 67 66
55 54 54 54 54 54 54 53 54 54 55 55 54 54 52 51 51 51 52 54 55 56 58 59 59 61 63 65 67 69 71 73 74 76 76 75 74 71 69 68 67 66
54 53 53 53 54 54 54 54 54 54 54 54 53 52 51 50 50 51 52 54 56 58 60 61 62 64 66 67 69 71 73 74 76 76 76 74 72 71 69 68 67 66
53 52 52 53 53 53 54 54 54 54 53 52 51 50 50 50 50 52 54 55 57 59 61 63 64 66 68 69 71 73 74 76 77 76 74 72 71 70 69 68 67 67
52 51 51 52 52 52 53 54 53 53 52 51 50 49 50 51 52 54 56 57 59 61 63 64 66 68 70 71 73 74 76 77 77 75 73 71 70 70 69 68 68 68
51 51 51 51 52 52 52 52 52 51 50 49 49 50 51 53 55 56 58 60 61 63 64 66 68 70 71 72 73 75 76 77 76 74 72 71 70 69 69 68 68 69
50 51 51 51 51 52 51 51 50 50 50 50 51 53 54 56 58 59 61 62 63 65 66 68 70 71 72 73 74 76 76 75 74 72 71 70 70 69 69 69 69 70
50 50 51 51 51 51 51 51 51 52 53 54 55 57 58 59 60 61 63 64 65 67 68 70 71 72 73 74 75 76 75 74 72 71 70 70 69 69 69 69 70 70
50 50 51 51 51 51 52 53 54 55 56 57 58 60 60 61 62 63 64 66 67 69 71 72 73 73 74 74 75 74 73 72 71 70 69 69 68 68 69 70 70 70
50 51 52 52 52 52 53 54 55 56 58 58 59 60 61 63 64 65 67 69 70 72 73 73 73 74 74 74 74 73 72 71 70 70 69 68 68 68 69 69 69 69
51 52 53 54 54 55 55 56 57 57 58 59 60 62 63 65 67 68 70 71 72 73 74 74 74 73 73 73 72 71 70 70 69 69 68 68 68 68 69 69 68 68
Wind_Direction
259 261 265 267 269 273 277 279 278 277 278 278 277 275 273 273 276 284 294 300 302 305 304 303 303 305 308 311 314 316 318 319 320 320 319 318 317 315 314 312 311 310
259 259 262 265 269 272 276 279 279 280 280 279 277 276 275 275 279 287 295 299 302 303 302 301 303 305 309 312 314 316 318 319 320 319 319 317 316 314 313 312 311 311
262 261 261 263 266 269 272 275 278 279 279 279 278 276 276 277 282 289 295 299 300 300 300 301 304 307 311 313 315 316 318 319 319 318 318 316 315 314 312 312 312 312
264 264 264 264 266 268 270 273 276 278 278 277 276 275 277 279 284 289 294 297 298 298 300 303 306 309 312 313 315 316 316 317 317 317 317 316 314 313 313 313 314 314
262 263 263 265 267 269 271 274 278 280 280 279 278 279 280 283 286 290 292 294 295 297 300 304 307 310 312 314 315 315 314 314 315 317 317 316 314 314 314 315 316 316
262 263 263 265 268 271 274 277 280 283 284 283 284 285 286 287 288 289 290 292 294 297 301 304 308 311 313 314 314 313 312 312 314 317 318 316 315 316 316 316 317 316
263 264 266 268 270 273 276 278 281 284 287 288 288 287 287 287 287 288 289 292 295 299 302 305 308 311 312 313 313 311 311 312 314 316 317 317 316 316 316 316 317 317
265 266 268 271 273 276 279 281 284 286 288 288 288 287 286 286 287 288 291 294 297 300 303 305 308 310 312 312 312 312 313 314 315 316 317 316 316 316 316 317 317 318
266 267 269 272 275 278 281 284 286 286 286 286 286 286 286 287 288 291 293 296 299 301 304 306 308 309 310 311 312 313 314 315 315 316 317 317 316 316 316 317 318 318
267 269 272 275 278 281 283 285 285 285 285 285 285 285 286 288 289 292 294 297 299 302 304 305 307 308 309 311 313 314 315 315 316 317 317 317 317 317 317 318 319 318
273 274 277 279 281 283 283 284 284 284 284 284 284 285 286 287 290 292 295 297 299 301 303 305 306 308 309 312 314 315 315 316 316 317 317 317 317 318 318 319 319 319
279 280 281 281 282 282 282 282 282 283 283 284 284 285 286 288 290 293 295 297 299 301 302 304 305 307 310 313 314 315 315 316 317 317 317 317 318 318 319 319 319 319
281 282 282 282 281 281 280 280 281 282 283 284 284 285 287 289 291 293 295 297 298 300 301 303 305 308 311 313 314 314 315 316 316 317 317 317 317 318 318 319 319 319
280 280 280 280 280 279 279 280 280 281 282 283 283 285 287 289 291 293 294 296 298 299 301 304 307 310 312 313 313 314 314 315 315 316 316 316 317 317 318 318 318 319
277 277 278 278 278 278 279 279 280 280 281 281 283 285 287 289 290 292 294 296 298 300 302 305 308 310 311 312 312 313 313 313 314 315 315 315 316 317 317 317 318 318
274 274 275 276 277 277 278 278 279 279 280 281 283 285 287 289 291 293 295 297 299 301 303 306 308 308 309 310 311 311 312 312 313 313 314 315 315 316 316 317 318 318
272 273 274 276 277 277 277 277 278 279 280 282 284 286 287 289 292 294 296 298 300 302 303 305 306 307 307 308 309 310 310 311 312 313 314 315 315 315 316 317 318 318
271 273 274 276 277 278 278 278 279 280 281 282 283 285 287 290 292 294 296 298 299 301 303 304 305 305 306 306 307 308 310 311 312 313 314 314 314 314 316 317 317 316
271 273 274 275 277 278 279 279 279 280 280 282 283 285 287 290 292 293 295 296 298 299 301 302 303 304 304 305 307 308 310 311 313 313 313 314 314 315 316 316 316 316
272 272 273 275 276 277 278 278 278 279 280 281 283 285 287 289 290 292 293 294 296 298 299 300 301 302 303 305 307 309 311 312 312 313 313 313 314 314 315 315 315 315
272 272 273 274 275 275 276 276 277 278 279 280 282 284 286 288 289 290 291 293 294 296 296 298 299 301 304 306 308 309 311 311 312 312 312 312 313 314 315 315 315 314
272 272 273 273 274 274 275 275 276 277 278 279 281 283 285 287 288 289 290 291 292 293 295 297 299 302 304 307 308 309 310 310 311 311 311 312 313 314 314 314 314 314
271 272 273 273 273 273 274 274 275 276 278 280 282 284 285 286 287 288 288 289 291 292 295 298 300 303 305 307 308 309 309 309 309 310 311 312 313 313 313 313 314 314
270 270 270 270 270 271 272 273 274 276 278 280 281 283 284 284 285 286 287 289 291 294 296 299 301 303 305 306 307 308 308 308 309 310 311 312 312 313 313 313 314 314
268 268 267 267 268 269 269 271 273 275 277 278 280 280 281 282 284 285 288 290 293 295 297 299 301 303 304 306 306 307 307 308 309 310 311 311 312 312 312 313 313 313
268 267 266 267 267 267 268 269 271 273 275 277 278 279 281 282 285 287 289 292 294 296 298 299 301 303 304 305 305 306 307 307 308 310 311 311 312 312 312 312 313 313
Height
10738 10738 10738 10736 10735 10735 10734 10733 10732 10731 10731 10731 10731 10730 10730 10729 10728 10726 10725 10723 10720 10717 10715 10712 10710 10707 10705 10702 10699 10696 10693 10691 10688 10685 10683 10680 10678 10675 10673 10671 10668 10666
10735 10734 10734 10733 10731 10731 10731 10730 10729 10728 10728 10728 10727 10727 10726 10725 10724 10722 10720 10718 10715 10712 10710 10708 10705 10703 10700 10697 10695 10691 10688 10686 10683 10681 10679 10676 10674 10671 10669 10666 10663 10661
10730 10730 10729 10728 10727 10727 10727 10726 10726 10725 10724 10724 10723 10723 10722 10721 10719 10717 10715 10713 10711 10708 10706 10703 10701 10699 10696 10693 10690 10687 10684 10681 10679 10677 10675 10672 10669 10666 10664 10661 10658 10656
10725 10725 10724 10723 10722 10722 10722 10722 10722 10721 10721 10720 10719 10718 10717 10716 10714 10712 10710 10708 10706 10704 10701 10698 10696 10694 10691 10688 10685 10682 10679 10677 10675 10673 10670 10667 10664 10661 10658 10656 10653 10650
10719 10719 10719 10718 10717 10717 10717 10716 10716 10716 10716 10715 10713 10712 10711 10710 10708 10707 10705 10703 10702 10700 10697 10694 10692 10689 10687 10684 10680 10677 10675 10672 10671 10668 10665 10662 10659 10656 10653 10651 10648 10645
10714 10714 10713 10713 10712 10712 10711 10710 10710 10710 10709 10709 10707 10706 10705 10704 10703 10702 10700 10698 10696 10694 10692 10690 10687 10685 10682 10679 10676 10673 10670 10668 10666 10664 10660 10656 10653 10651 10648 10645 10642 10639
10708 10708 10708 10707 10707 10706 10706 10705 10704 10704 10703 10703 10701 10700 10699 10698 10697 10697 10695 10693 10690 10689 10687 10685 10683 10680 10677 10674 10671 10669 10666 10663 10660 10659 10656 10652 10649 10646 10643 10640 10636 10632
10702 10702 10702 10702 10701 10700 10700 10700 10699 10699 10698 10697 10696 10695 10693 10692 10692 10691 10690 10688 10685 10683 10682 10680 10678 10676 10673 10669 10666 10664 10661 10657 10654 10652 10651 10648 10644 10641 10638 10634 10630 10626
10697 10697 10697 10696 10696 10695 10695 10694 10693 10693 10693 10692 10690 10689 10688 10687 10686 10685 10684 10683 10681 10679 10676 10674 10673 10671 10668 10665 10662 10658 10655 10652 10648 10646 10644 10641 10638 10635 10632 10628 10624 10619
10692 10692 10692 10691 10691 10690 10690 10689 10688 10688 10687 10686 10685 10683 10682 10681 10680 10680 10679 10678 10676 10674 10672 10669 10667 10666 10663 10661 10657 10653 10650 10646 10642 10640 10637 10634 10632 10628 10625 10621 10617 10613
10687 10687 10686 10686 10685 10685 10684 10683 10683 10683 10682 10681 10679 10678 10677 10676 10675 10675 10675 10673 10671 10669 10667 10665 10662 10660 10658 10655 10652 10648 10645 10641 10637 10634 10631 10628 10625 10621 10618 10614 10610 10606
10681 10681 10681 10680 10680 10680 10679 10678 10678 10677 10677 10675 10674 10673 10671 10671 10670 10670 10669 10668 10666 10664 10662 10660 10658 10655 10653 10650 10647 10643 10639 10636 10632 10628 10625 10622 10618 10615 10611 10607 10603 10599
10676 10676 10676 10675 10675 10675 10674 10673 10673 10672 10671 10670 10669 10667 10666 10666 10666 10665 10664 10662 10660 10658 10657 10655 10653 10650 10648 10645 10641 10638 10634 10630 10627 10623 10619 10616 10612 10609 10605 10601 10597 10593
10671 10671 10671 10671 10671 10670 10669 10668 10668 10667 10666 10664 10663 10662 10662 10662 10661 10660 10658 10656 10654 10653 10651 10650 10648 10645 10642 10639 10636 10633 10629 10625 10621 10618 10614 10610 10606 10602 10599 10595 10591 10587
10668 10668 10667 10667 10666 10665 10664 10664 10663 10662 10660 10659 10658 10658 10658 10657 10656 10655 10653 10650 10648 10647 10646 10644 10642 10639 10637 10634 10631 10627 10624 10620 10616 10612 10609 10605 10601 10596 10592 10589 10585 10580
10664 10664 10663 10663 10662 10661 10660 10659 10657 10656 10654 10654 10653 10653 10653 10652 10651 10649 10647 10644 10643 10641 10640 10639 10637 10634 10631 10628 10625 10622 10619 10615 10611 10607 10603 10599 10595 10591 10587 10583 10578 10574
10659 10659 10659 10658 10656 10655 10655 10653 10652 10650 10649 10649 10649 10648 10647 10646 10645 10643 10641 10638 10637 10635 10634 10633 10631 10628 10626 10623 10620 10617 10613 10610 10606 10602 10598 10594 10589 10585 10581 10577 10573 10568
10653 10654 10653 10652 10650 10650 10649 10648 10647 10646 10645 10645 10644 10643 10642 10641 10639 10637 10635 10633 10631 10630 10628 10627 10625 10622 10620 10618 10615 10611 10607 10604 10600 10596 10592 10588 10584 10579 10575 10571 10567 10562
10648 10648 10647 10645 10645 10645 10644 10642 10641 10641 10640 10640 10639 10638 10637 10635 10634 10632 10630 10628 10626 10624 10623 10621 10619 10616 10614 10612 10608 10605 10601 10597 10593 10590 10586 10582 10577 10573 10569 10565 10560 10556
10643 10642 10641 10640 10640 10639 10638 10637 10636 10636 10635 10635 10634 10633 10632 10630 10628 10626 10625 10623 10621 10619 10618 10616 10613 10611 10608 10605 10602 10598 10594 10591 10587 10583 10579 10576 10571 10567 10563 10558 10554 10549
10637 10636 10635 10635 10634 10633 10632 10632 10631 10631 10630 10630 10629 10628 10626 10625 10623 10622 10620 10618 10616 10614 10613 10611 10608 10606 10603 10599 10596 10592 10588 10585 10581 10577 10574 10570 10565 10561 10557 10552 10548 10543
10630 10630 10629 10629 10628 10627 10627 10627 10626 10626 10625 10625 10624 10623 10621 10619 10618 10616 10614 10613 10611 10609 10608 10605 10603 10600 10597 10593 10590 10586 10582 10579 10575 10572 10568 10564 10559 10555 10551 10546 10541 10537
10625 10624 10623 10623 10622 10622 10622 10622 10621 10621 10620 10620 10619 10617 10616 10614 10613 10611 10609 10608 10606 10604 10602 10600 10597 10594 10591 10588 10584 10580 10577 10573 10570 10566 10562 10557 10553 10549 10544 10540 10535 10530
10619 10619 10618 10617 10617 10617 10617 10617 10616 10616 10615 10614 10613 10612 10610 10609 10607 10606 10604 10602 10601 10599 10596 10594 10591 10589 10585 10582 10578 10575 10571 10568 10564 10560 10556 10551 10547 10543 10538 10534 10529 10524
10614 10613 10612 10612 10612 10612 10612 10612 10611 10611 10610 10609 10608 10607 10605 10603 10602 10600 10599 10597 10595 10592 10590 10587 10585 10582 10579 10576 10572 10569 10565 10562 10558 10554 10550 10546 10541 10537 10532 10527 10523 10518
10609 10608 10607 10607 10607 10607 10607 10606 10606 10605 10605 10604 10603 10601 10599 10597 10596 10594 10593 10591 10589 10586 10583 10581 10579 10576 10573 10570 10566 10563 10559 10556 10552 10548 10543 10539 10535 10530 10526 10521 10516 10511